Regional Weather Roundup
Issued by NWS

Home | Current Version | Previous Version | Graphics & Text | Print | Product List | Glossary On
Versions: 1 2 3 4 5 6 7 8 9 10 11 12 13 14 15 16 17 18 19 20 21 22 23 24 25 26 27
000
ASUS45 KBOU 232007
RWRCO

WEATHER ROUNDUP FOR COLORADO
NATIONAL WEATHER SERVICE DENVER/BOULDER CO
200 PM MDT THU OCT 23 2014

NOTE: "FAIR" INDICATES FEW OR NO CLOUDS BELOW 12000 FEET WITH NO
SIGNIFICANT WEATHER AND/OR OBSTRUCTIONS TO VISIBILITY.

COZ001>005-013-030-031-232100-
...NORTHWEST COLORADO...

CITY           SKY/WX    TMP DP  RH WIND       PRES   REMARKS
CRAIG          SUNNY     68  35  29 W12       30.21F
HAYDEN         SUNNY     63  32  31 NW5       30.22F
MEEKER         SUNNY     67  34  29 SW8       30.23F
MOUNT WERNER   NOT AVBL
STEAMBOAT SPGS SUNNY     61  32  33 SW6       30.25F
WALDEN         PTSUNNY   54  25  32 SW18G26   30.27F
$$

COZ006>008-011-232100-
...WEST CENTRAL VALLEYS...

CITY           SKY/WX    TMP DP  RH WIND       PRES   REMARKS
GRAND JUNCTION SUNNY     68  38  33 W5        30.20F
MONTROSE       SUNNY     69  36  29 NW6       30.24F
EAGLE          MOSUNNY   63  37  39 CALM      30.27F
RIFLE          SUNNY     63  36  36 CALM      30.22F
DELTA          SUNNY     73  35  24 CALM      30.22F
NUCLA          SUNNY     68  34  28 W5        30.29F
$$

COZ017>023-064>068-232100-
...SOUTHWEST COLORADO...

CITY           SKY/WX    TMP DP  RH WIND       PRES   REMARKS
DURANGO        SUNNY     64  37  36 W7        30.29F
CORTEZ         SUNNY     69  35  28 CALM      30.27F
PAGOSA SPRINGS SUNNY     63  26  24 S5        30.34F
TELLURIDE      SUNNY     60  27  28 SW8       30.41F
WOLF CREEK PAS SUNNY     43  28  56 S10G18      N/A
$$

COZ009-010-012-014-032>034-037-058>063-232100-
...CENTRAL COLORADO...

CITY           SKY/WX    TMP DP  RH WIND       PRES   REMARKS
ASPEN          SUNNY     62  32  32 MISG      30.30F
BUENA VISTA    SUNNY     63  26  25 CALM      30.29F
COPPER MTN     SUNNY     46  28  49 W14       30.51S
BERTHOUD PASS  FAIR      34  32  93 NW17G31   30.52S WCI  23
COTTONWOOD PAS SUNNY     59  27  29 N6        30.39F
GUNNISON       SUNNY     59  34  38 CALM      30.35F
KREMMLING      SUNNY     63  30  29 W9          N/A
LEADVILLE      SUNNY     51  26  37 NW12G18   30.40F
MONARCH PASS   SUNNY     41  30  65 SW22G31   30.62F
SALIDA         SUNNY     67  30  25 SW10      30.33F
SUNLIGHT       SUNNY     52  32  46 W3        30.49S
WILKERSON PASS NOT AVBL
$$

COZ069>075-232100-
...SAN LUIS VALLEY/SANGRE DE CRISTO MOUNTAINS...

CITY           SKY/WX    TMP DP  RH WIND       PRES   REMARKS
ALAMOSA        SUNNY     63  26  24 CALM      30.30F
LA VETA PASS   SUNNY     54  30  40 S18G28    30.41F
SAGUACHE       SUNNY     63  32  31 S8        30.32F
$$

COZ035-036-038>040-232100-
...NORTHERN COLORADO FRONT RANGE...

CITY           SKY/WX    TMP DP  RH WIND       PRES   REMARKS
DENVER INTL AP PTSUNNY   74  27  17 W9        30.12F
DMNS CITY PARK   N/A     71  31  22 E3        30.11F
AURORA         PTSUNNY   70  29  21 NW8       30.15F
FRONT RANGE AP PTSUNNY   75  30  19 W9        30.14F
ERIE MUNI ARPT PTSUNNY   71  27  19 W13       30.10F
BOULDER MUN AP PTSUNNY   70  30  23 W12G18    30.10F
CENTENNIAL     PTSUNNY   70  30  22 NW6       30.15F
BROOMFIELD     PTSUNNY   72  30  21 W13       30.13F
FORT COLLINS   PTSUNNY   72  36  26 S7        30.10F
LONGMONT       PTSUNNY   73  31  21 W10       30.11F
$$

COZ041-046-047-076>085-087-088-232100-
...PIKES PEAK/PALMER DIVIDE AND SOUTHERN FOOTHILLS...

CITY           SKY/WX    TMP DP  RH WIND       PRES   REMARKS
COLO. SPRINGS  PTSUNNY   70  27  20 S8        30.19F
A. F. ACADEMY  MOSUNNY   69  28  21 S7        30.19F
ELLICOTT       NOT AVBL
FALCON         MOSUNNY   68  24  19 S10       30.22F
FORT CARSON    SUNNY     70  30  22 VRB5      30.16F
LIMON          SUNNY     71  28  20 VRB7      30.14F
MONUMENT HILL  MOSUNNY   66  25  20 N7        30.22F
TRINIDAD       SUNNY     73  27  18 NW5       30.16F
$$

COZ042>045-048>051-090-091-232100-
...NORTHEAST COLORADO...

CITY           SKY/WX    TMP DP  RH WIND       PRES   REMARKS
GREELEY ARPT   PTSUNNY   73  36  25 SW10      30.08F
AKRON          SUNNY     72  29  20 SW9       30.10F
BURLINGTON     SUNNY     74  41  30 SW9       30.09F
WRAY           MOSUNNY   80  37  21 S8G16     30.05F
STERLING       SUNNY     75  37  25 SW9G18    30.06F
HOLYOKE        MOSUNNY   79  36  21 SW7       30.05F
FORT MORGAN    SUNNY     73  33  22 SW3       30.09F
$$

COZ086-089-092>099-232100-
...SOUTHEAST COLORADO...

CITY           SKY/WX    TMP DP  RH WIND       PRES   REMARKS
PUEBLO         SUNNY     74  28  18 SE7       30.10F
LA JUNTA       SUNNY     73  41  31 CALM      30.09F
LAMAR          SUNNY     75  47  36 CALM      30.06F
SPRINGFIELD      N/A     72  48  42 SE5       30.11F
$$



USA.gov is the U.S. government's official web portal to all federal, state and local government web resources and services.